Other Public Products
Issued by NWS Charleston, SC

Current Version | Previous Version | Text Only | Print | Product List | Glossary Off
Versions: 1 2 3 4 5 6 7 8 9 10 11 12 13 14 15 16 17 18 19 20 21 22 23 24 25 26 27 28 29 30 31 32 33 34 35 36 37 38 39 40 41 42 43 44 45 46 47 48 49 50

000
FPUS82 KCHS 281027
OPUCHS

TEST...KCHS/KSAV Gateway Observations...TEST
National Weather Service Charleston SC
600 AM EDT FRI JUL 28 2017

NOTE: "fair" indicates few or no clouds below 12,000 feet with no
significant weather and/or obstructions to visibility.

SCZ050-WAZ558-NCZ071-TXZ119-213-PAZ071-DCZ001-FLZ074-172-MI076-
NYZ176-178-MAZ016-IL014-TNZ027-NJZ106-GAZ044-MD014-281100-

...Gateway Observations for Charleston International...

CITY           SKY/WX    TMP DP  RH WIND       PRES   REMARKS
Chas Airport   PTCLDY    76  74  93 CALM      29.89R
Seattle        CLOUDY    57  53  86 N7        30.11R
Charlotte      CLOUDY    75  73  93 S5        29.90S
Dallas DFW     PTCLDY    84  70  62 SW12      29.89S
Dallas Love    MOCLDY    85  70  60 SW10      29.90S
Philladelphia  CLOUDY    72  70  93 NE7       29.85R FOG
Wash National  CLOUDY    76  72  87 W7        29.84R
Baltimore      CLOUDY    75  73  93 NE6       29.83R
Miami          MOCLDY    83  75  77 CALM      29.95R HX  90
Detroit        CLOUDY    65  61  87 N8        29.93S
Newark         PTCLDY    71  68  90 CALM      29.86R
Laguardia      PTCLDY    72  71  97 NE3       29.85R
J F K          PTCLDY    72  72 100 CALM      29.86R
Boston Logan   PTCLDY    68  65  90 W8        29.84R
Ft. Lauderdale PTCLDY    81  77  88 CALM      29.94R
Chicago O`Hare PTCLDY    69  63  81 N14       29.93F
Chicago Midway PTCLDY    70  65  84 N13       29.93R
Houston Bush   PTCLDY    79  76  90 CALM      29.96S
Houston Hobby  PTCLDY    80  75  84 CALM      29.96R
Nashville      CLOUDY    77  72  84 S7        29.87F
Atlanta        MOCLDY    73  72  96 SW3       29.93S

$$

GAZ044-118-TXZ119-213-NCZ071-DCZ001-MDZ014-506-PAZ021-071-NJZ106-
NYZ176-178-MAZ106-OHZ011-021-055-MIZ076-KYZ091-ILZ014-INZ047-
MNZ060-ONZ431-281100-

...Gateway Observations for Savannah International...

CITY           SKY/WX    TMP DP  RH WIND       PRES   REMARKS
Savannah Arpt  FOG       75  73  93 W3        29.91R VSB 1/2
Atlanta        MOCLDY    73  72  96 SW3       29.93S
Charlotte      CLOUDY    75  73  93 S5        29.90S
Dallas DFW     PTCLDY    84  70  62 SW12      29.89S
Houston Bush   PTCLDY    79  76  90 CALM      29.96S
Wash National  CLOUDY    76  72  87 W7        29.84R
Wash Dulles    MOCLDY    70  68  93 CALM      29.84S
Baltimore      CLOUDY    75  73  93 NE6       29.83R
Philadelphia   CLOUDY    72  70  93 NE7       29.85R FOG
Newark         PTCLDY    71  68  90 CALM      29.86R
Laguardia      PTCLDY    72  71  97 NE3       29.85R
J F K          PTCLDY    72  72 100 CALM      29.86R
Boston         PTCLDY    68  65  90 W8        29.84R
Pittsburg      CLOUDY    69  69 100 CALM      29.87R FOG
Akron          CLOUDY    67  63  87 N9        29.87S
Cleveland      MOCLDY    72  67  84 CALM      29.89S
Cincinnati     DRIZZLE   73  73 100 CALM      29.84S FOG
Columbus       CLOUDY    69  69 100 N3        29.86R
Detroit        CLOUDY    65  61  87 N8        29.93S
Chicago O`Hare PTCLDY    69  63  81 N14       29.93F
Minneapolis    PTCLDY    66  60  81 N3        30.07S
Indianapolis   MOCLDY    73  72  96 NE7       29.84R FOG
Toronto Canada MOCLDY    64  57  77 N10       29.96R

$$




USA.gov is the U.S. government's official web portal to all federal, state and local government web resources and services.